This demonstration page uses our WeatherBlox Daily Observations layout. Learn more.

41.55636, -103.73856

Hourly Observations for June 28, 2020

Temp ( °F °C ) Dew Point ( °F °C ) Humidity (%) Winds ( mph kmh ) Pressure ( in mb ) Visibility ( mi km ) Precip ( " mm )
12:58 am 00:58 Partly Cloudy 84 29.1 44 6.9 25 25 E 7 11 29.6 1002 10 16.0934 0 0
1:58 am 01:58 Clear 80 26.7 43 6.1 27 27 E 9 15 29.6 1002 10 16.0934 0 0
2:58 am 02:58 Clear 77 24.8 43 6.1 30 30 ESE 9 15 29.58 1002 10 16.0934 0 0
3:58 am 03:58 Clear 71 21.5 44 6.5 38 38 WSW 9 15 29.57 1002 10 16.0934 0 0
4:58 am 04:58 Clear 71 21.6 41 4.9 34 34 S 12 19 29.57 1001 10 16.0934 0 0
5:58 am 05:58 Clear 67 19.4 44 6.5 43 43 SW 15 24 29.54 1000 10 16.0934 0 0
6:58 am 06:58 Clear 65 18.5 44 6.8 47 47 SW 15 24 29.51 999 10 16.0934 0 0
7:58 am 07:58 Clear 69 20.4 41 5.2 37 37 SSW 20 31 29.48 998 10 16.0934 0 0
8:58 am 08:58 Mostly Cloudy 67 19.3 42 5.8 41 41 SW 10 17 29.48 998 10 16.0934 0 0
9:58 am 09:58 Mostly Clear 71 21.8 39 3.7 31 31 WSW 8 13 29.47 998 10 16.0934 0 0
10:58 am 10:58 Clear 68 20.1 41 5.1 38 38 SW 10 17 29.47 998 10 16.0934 0 0
11:58 am 11:58 Sunny 66 18.8 41 4.9 40 40 Calm 29.5 999 10 16.0934 0 0
12:58 pm 12:58 Sunny 65 18.4 45 7.1 48 48 NNW 6 9 29.54 1000 10 16.0934 0 0
1:58 pm 13:58 Sunny 70 21.3 42 5.7 36 36 W 6 9 29.54 1001 10 16.0934 0 0
2:58 pm 14:58 Sunny 78 25.6 40 4.3 25 25 W 8 13 29.54 1000 10 16.0934 0 0
3:58 pm 15:58 Sunny 83 28.4 38 3.4 20 20 NW 8 13 29.53 1000 10 16.0934 0 0
4:58 pm 16:58 Sunny 86 30.1 36 2 16 16 NNW 7 11 29.5 999 10 16.0934 0 0
5:58 pm 17:58 Sunny 88 30.9 36 2 16 16 W 9 15 29.51 999 10 16.0934 0 0
6:58 pm 18:58 Sunny 92 33.2 35 1.6 13 13 W 7 11 29.48 998 10 16.0934 0 0
7:58 pm 19:58 Mostly Cloudy 90 32.1 35 1.9 15 15 W 6 9 29.46 998 10 16.0934 0 0
8:58 pm 20:58 Partly Cloudy 91 32.7 35 1.9 14 14 N 8 13 29.45 997 10 16.0934 0 0
9:58 pm 21:58 Mostly Cloudy 89 31.7 38 3.6 17 17 ESE 14 22 29.43 997 10 16.0934 0 0
10:58 pm 22:58 Mostly Cloudy 83 28.4 43 6 24 24 S 13 20 29.48 998 10 16.0934 0 0
11:58 pm 23:58 Mostly Sunny 82 27.7 45 7.3 28 28 NNE 9 15 29.47 998 10 16.0934 0 0

Powered by AerisWeather